星链-2607 (STARLINK-2607 )

导读

STARLINK-2607是美国SpaceX公司星链(Starlink)星座中的一颗低轨通信卫星,于2021年5月4日发射升空。该卫星运行在约550公里高度的近地轨道,属于Starlink v1.5平台,旨在为全球用户提供高速卫星互联网接入服务,尤其助力偏远及基础设施薄弱地区实现宽带覆盖,目前处于在轨运行状态。作为星链巨型星座的组成部分,它采用先进通信技术,具备自主变轨避撞能力,可支撑低延迟、高带宽的全球网络连接,设计寿命约5至7年。

Basic Information
目录编号:
48391
目录名称:
STARLINK-2607
国际标识:
2021-038AQ
轨道中心:
EARTH
卫星名称:
星链-2607
卫星全名:
星链-2607 (STARLINK-2607 )
卫星状态:
在轨 (已飞行1950 天)
发射日期:
2021-05-04 UTC
国别 :
美国 (US)
星等 :
--
Orbit Information
数据来源 国际轨道数据 AOE轨道数据
星历时间 2026-09-05T11:54:09+0800
5小时前
查看轨道信息
2026-09-03T23:00:00+0800
1天前
查看轨道信息
半长轴 6848.892km 6848.872km
偏心率 0.000142 0.0001323
轨道倾角 53.160° 53.162°
近地点辐角 94.080° 83.742°
升交点赤经 217.800° 224.966°
平近点角 266.036° 73.079°
近地点 469.782km 469.828km
远地点 471.728km 471.642km
周期 94.013分钟 94.013分钟
每日圈数 15.316951 15.317017
Detailed Information
固有亮度:
5
最大亮度:
2.5
卫星平台:
Starlink V1.0
覆盖范围:
全球
运营商:
太空探索技术公司
运营商所在国:
美国
制造商(研发单位):
太空探索技术公司
制造商所在国:
美国
使用方式:
暂无
Satellite Introduction
星链(Starlink)计划是由太空探索技术公司(SpaceX)提出的一个巨型低轨卫星互联网星座项目,计划在2019年至2024年间在太空搭建由约1.2万颗卫星组成的“星链”网络,其中1584颗将部署在地球上空550千米处的近地轨道,并从2020年开始工作。该卫星仍在工作。
2D Orbit Map
3D Orbit Map
Orbit Altitude Analysis Chart
Orbit Inclination Analysis Chart
Orbit Comprehensive Analysis Chart
View Comprehensive Chart
Conjunction Data List
Event ID Objects TCA Miss Dist (km) Collision Risk Probability Collision Risk Index (CRI) Action
CDM_260906-113404-742304-839124
OBJECT L (47423)
2026-09-06T
11:34:10+0000
2.211 km
极远距离
1.839344E-6 低风险 0.4
CDM_260906-162204-839106-268122
2026-09-06T
16:22:00+0000
2.665 km
极远距离
1.468723E-6 低风险 0.38
CDM_260906-210304-839106-189522
OBJECT B (61895)
2026-09-06T
21:03:28+0000
2.764 km
极远距离
1.382882E-6 低风险 0.38
CDM_260905-072404-839106-758422
2026-09-05T
07:24:01+0000
2.930 km
极远距离
1.176094E-6 低风险 0.36